Location: Moscow
(44.4414°N, 72.7154°W)
Time: 07:58:13
(UTC+00:00)

Vanguard 1 Rocket - Pass Details

Date: 20 November 2024
Orbit: 650 x 4218 km, 34.3° (Epoch: 04 December)

Event Time Altitude Azimuth Distance (km) Brightness Sun altitude
Rises 11:16:10 0° 179° (S) 7,442 12.4 -7.0°
Reaches altitude 10° 11:23:51 10° 163° (SSE) 6,932 12.5 -5.8°
Maximum altitude 11:37:36 18° 128° (SE) 6,663 13.2 -3.5°
Drops below altitude 10° 11:51:40 10° 95° (E) 7,246 13.4 -1.3°
Sets 11:59:43 0° 80° (E) 7,910 13.1 0.0°
